| time (UTC) | temp F | wind direction | speed knots | gust knots | rain 1hr in | rain 24hr in | rain mn in | humidity % | barometer mb |
| 20260507093044 | 41 | 0 | 0.0 | 0.0 | 0.00 | 0.00 | 0.00 | 85 | 1014.3 |
| 20260507091543 | 41 | 0 | 0.0 | 1.7 | 0.00 | 0.00 | 0.00 | 86 | 1014.2 |
| 20260507090042 | 41 | 0 | 0.0 | 0.0 | 0.00 | 0.00 | 0.00 | 88 | 1014.2 |
| 20260507084549 | 40 | 0 | 0.0 | 0.0 | 0.00 | 0.03 | 0.00 | 91 | 1014.0 |
| 20260507083047 | 40 | 0 | 0.0 | 0.0 | 0.00 | 0.03 | 0.00 | 92 | 1014.0 |
| 20260507081544 | 40 | 0 | 0.0 | 0.0 | 0.00 | 0.03 | 0.00 | 93 | 1014.0 |
| 20260507080049 | 39 | 0 | 0.0 | 0.0 | 0.00 | 0.03 | 0.00 | 94 | 1013.9 |
| 20260507074545 | 39 | 0 | 0.0 | 0.0 | 0.00 | 0.09 | 0.00 | 93 | 1014.1 |
| 20260507073036 | 39 | 0 | 0.0 | 0.0 | 0.00 | 0.09 | 0.00 | 93 | 1014.1 |
| 20260507071547 | 40 | 0 | 0.0 | 0.0 | 0.00 | 0.09 | 0.00 | 93 | 1014.0 |
| 20260507070057 | 40 | 0 | 0.0 | 0.0 | 0.00 | 0.09 | 0.00 | 93 | 1014.0 |
| 20260507064547 | 41 | 0 | 0.0 | 0.0 | 0.00 | 0.15 | 0.00 | 93 | 1014.2 |
| 20260507063051 | 41 | 0 | 0.0 | 0.0 | 0.00 | 0.15 | 0.00 | 93 | 1014.3 |
| 20260507061539 | 41 | 0 | 0.0 | 0.0 | 0.00 | 0.15 | 0.00 | 93 | 1014.2 |
| 20260507060039 | 41 | 0 | 0.0 | 0.0 | 0.00 | 0.15 | 0.00 | 92 | 1014.2 |
| 20260507054544 | 42 | 0 | 0.0 | 0.0 | 0.00 | 0.24 | 0.00 | 92 | 1014.3 |
| 20260507053044 | 42 | 0 | 0.0 | 0.0 | 0.00 | 0.24 | 0.00 | 91 | 1014.4 |
| 20260507051543 | 42 | 0 | 0.0 | 0.0 | 0.00 | 0.24 | 0.00 | 91 | 1014.6 |
| 20260507050100 | 42 | 0 | 0.0 | 0.0 | 0.00 | 0.24 | 0.00 | 91 | 1014.6 |
| 20260507044551 | 43 | 0 | 0.0 | 0.0 | 0.00 | 0.39 | 0.00 | 89 | 1014.5 |
| 20260507043044 | 43 | 0 | 0.0 | 0.0 | 0.00 | 0.39 | 0.00 | 89 | 1014.4 |
| 20260507041545 | 44 | 0 | 0.0 | 0.0 | 0.00 | 0.39 | 0.00 | 88 | 1014.5 |
| 20260507040048 | 44 | 0 | 0.0 | 0.0 | 0.00 | 0.39 | 0.00 | 88 | 1014.5 |
| 20260507034547 | 44 | 0 | 0.0 | 0.0 | 0.00 | 0.40 | 0.39 | 85 | 1014.6 |
| 20260507033048 | 44 | 0 | 0.0 | 0.0 | 0.00 | 0.40 | 0.39 | 83 | 1014.6 |
| 20260507031543 | 45 | 0 | 0.0 | 0.0 | 0.00 | 0.40 | 0.39 | 82 | 1014.6 |
| 20260507030045 | 46 | 0 | 0.0 | 0.0 | 0.00 | 0.40 | 0.39 | 79 | 1014.7 |
| 20260507024545 | 46 | 0 | 0.0 | 0.0 | 0.00 | 0.48 | 0.39 | 78 | 1014.8 |
| 20260507023040 | 47 | 0 | 0.0 | 0.0 | 0.00 | 0.48 | 0.39 | 76 | 1014.8 |
| 20260507021556 | 48 | 0 | 0.0 | 0.0 | 0.00 | 0.48 | 0.39 | 74 | 1014.6 |
| 20260507020045 | 49 | 0 | 0.0 | 0.0 | 0.00 | 0.48 | 0.39 | 72 | 1014.4 |
| 20260507014543 | 51 | 0 | 0.0 | 0.0 | 0.00 | 0.66 | 0.39 | 71 | 1014.0 |
| 20260507013044 | 52 | 0 | 0.0 | 0.0 | 0.00 | 0.66 | 0.39 | 67 | 1014.1 |
| 20260507011543 | 52 | 0 | 0.0 | 0.0 | 0.00 | 0.66 | 0.39 | 64 | 1014.0 |
| 20260507010043 | 53 | 0 | 0.0 | 0.9 | 0.00 | 0.66 | 0.39 | 63 | 1014.2 |
| 20260507004547 | 53 | 0 | 0.0 | 1.7 | 0.00 | 0.74 | 0.39 | 62 | 1014.0 |
| 20260507003042 | 53 | 0 | 0.0 | 1.7 | 0.00 | 0.74 | 0.39 | 60 | 1013.6 |
| 20260507001542 | 54 | 328 | 0.0 | 1.7 | 0.00 | 0.74 | 0.39 | 61 | 1013.4 |
| 20260507000043 | 54 | 355 | 0.0 | 2.6 | 0.00 | 0.74 | 0.39 | 60 | 1013.4 |
| 20260506234603 | 55 | 0 | 0.0 | 2.6 | 0.00 | 0.78 | 0.39 | 61 | 1013.4 |
| 20260506233046 | 55 | 0 | 0.9 | 2.6 | 0.00 | 0.78 | 0.39 | 59 | 1013.3 |
| 20260506231542 | 56 | 5 | 0.9 | 4.3 | 0.00 | 0.78 | 0.39 | 58 | 1013.4 |
| 20260506230045 | 56 | 23 | 1.7 | 4.3 | 0.00 | 0.78 | 0.39 | 58 | 1013.4 |
| 20260506224545 | 56 | 26 | 0.9 | 3.5 | 0.00 | 0.86 | 0.39 | 58 | 1013.7 |
| 20260506223037 | 56 | 360 | 0.0 | 3.5 | 0.00 | 0.86 | 0.39 | 60 | 1013.6 |
| 20260506221547 | 56 | 293 | 0.0 | 4.3 | 0.00 | 0.86 | 0.39 | 58 | 1013.8 |
| 20260506220047 | 56 | 0 | 1.7 | 7.0 | 0.00 | 0.86 | 0.39 | 57 | 1013.8 |
| 20260506214544 | 56 | 355 | 1.7 | 4.3 | 0.00 | 0.90 | 0.39 | 54 | 1013.7 |
| 20260506213042 | 56 | 306 | 1.7 | 5.2 | 0.00 | 0.90 | 0.39 | 53 | 1013.4 |
| 20260506211541 | 56 | 327 | 0.9 | 6.1 | 0.00 | 0.90 | 0.39 | 57 | 1013.3 |
| 20260506210041 | 56 | 294 | 0.9 | 4.3 | 0.00 | 0.90 | 0.39 | 56 | 1013.2 |
| 20260506204555 | 56 | 39 | 1.7 | 3.5 | 0.00 | 1.10 | 0.39 | 57 | 1013.3 |
| 20260506203045 | 56 | 0 | 0.9 | 5.2 | 0.00 | 1.10 | 0.39 | 57 | 1013.2 |
| 20260506201544 | 57 | 304 | 0.9 | 8.7 | 0.00 | 1.10 | 0.39 | 56 | 1013.2 |
| 20260506194547 | 57 | 244 | 1.7 | 9.6 | 0.00 | 1.17 | 0.39 | 55 | 1012.8 |
| 20260506193047 | 58 | 307 | 2.6 | 7.8 | 0.00 | 1.17 | 0.39 | 57 | 1012.8 |
| 20260506191545 | 57 | 19 | 2.6 | 7.8 | 0.00 | 1.17 | 0.39 | 54 | 1013.0 |
| 20260506190043 | 58 | 335 | 1.7 | 8.7 | 0.00 | 1.17 | 0.39 | 56 | 1012.9 |
| 20260506184540 | 60 | 13 | 1.7 | 11.3 | 0.00 | 1.17 | 0.39 | 53 | 1012.8 |
| 20260506183059 | 59 | 302 | 1.7 | 7.8 | 0.00 | 1.17 | 0.39 | 55 | 1012.5 |
| 20260506181549 | 58 | 355 | 2.6 | 7.8 | 0.00 | 1.17 | 0.39 | 54 | 1012.9 |
| 20260506180044 | 57 | 338 | 2.6 | 11.3 | 0.00 | 1.17 | 0.39 | 57 | 1013.2 |
| 20260506174542 | 58 | 13 | 2.6 | 5.2 | 0.00 | 1.17 | 0.39 | 59 | 1013.1 |
| 20260506173047 | 58 | 5 | 1.7 | 4.3 | 0.00 | 1.17 | 0.39 | 58 | 1013.2 |
| 20260506171549 | 58 | 316 | 2.6 | 8.7 | 0.00 | 1.17 | 0.39 | 56 | 1013.2 |
| 20260506170048 | 57 | 321 | 1.7 | 7.0 | 0.00 | 1.17 | 0.39 | 60 | 1013.3 |
| 20260506164550 | 57 | 296 | 1.7 | 7.0 | 0.00 | 1.17 | 0.39 | 62 | 1013.2 |
| 20260506163044 | 56 | 322 | 4.3 | 9.6 | 0.00 | 1.17 | 0.39 | 62 | 1013.1 |
| 20260506161551 | 55 | 63 | 2.6 | 7.8 | 0.00 | 1.17 | 0.39 | 64 | 1013.1 |
| 20260506160044 | 55 | 9 | 0.9 | 7.0 | 0.00 | 1.17 | 0.39 | 68 | 1013.1 |
| 20260506154548 | 54 | 360 | 0.9 | 7.0 | 0.00 | 1.17 | 0.39 | 68 | 1013.4 |
| 20260506153041 | 53 | 24 | 1.7 | 7.8 | 0.00 | 1.17 | 0.39 | 72 | 1013.1 |
| 20260506151558 | 52 | 284 | 1.7 | 7.8 | 0.00 | 1.17 | 0.39 | 73 | 1012.5 |
| 20260506150040 | 52 | 34 | 0.9 | 7.8 | 0.00 | 1.17 | 0.39 | 75 | 1012.2 |
| 20260506144544 | 51 | 317 | 2.6 | 7.0 | 0.00 | 1.17 | 0.39 | 74 | 1012.3 |
| 20260506143051 | 50 | 5 | 1.7 | 5.2 | 0.00 | 1.17 | 0.39 | 79 | 1012.0 |
| 20260506141544 | 49 | 20 | 0.9 | 7.0 | 0.00 | 1.17 | 0.39 | 83 | 1012.0 |
| 20260506140045 | 48 | 349 | 0.9 | 7.0 | 0.00 | 1.17 | 0.39 | 83 | 1012.2 |
| 20260506134539 | 47 | 11 | 0.0 | 5.2 | 0.00 | 1.17 | 0.39 | 86 | 1012.0 |
| 20260506133048 | 46 | 17 | 1.7 | 7.8 | 0.00 | 1.17 | 0.39 | 87 | 1011.6 |
| 20260506131545 | 46 | 355 | 0.9 | 7.0 | 0.00 | 1.17 | 0.39 | 88 | 1011.6 |
| 20260506130057 | 46 | 5 | 0.0 | 4.3 | 0.00 | 1.17 | 0.39 | 91 | 1011.4 |
| 20260506124541 | 45 | 10 | 0.9 | 4.3 | 0.00 | 1.17 | 0.39 | 92 | 1011.1 |
| 20260506123041 | 45 | 0 | 0.9 | 5.2 | 0.00 | 1.17 | 0.39 | 92 | 1011.2 |
| 20260506121536 | 44 | 351 | 0.9 | 3.5 | 0.00 | 1.17 | 0.39 | 93 | 1010.9 |
| 20260506120046 | 44 | 0 | 0.0 | 5.2 | 0.00 | 1.17 | 0.39 | 94 | 1010.8 |
| 20260506114546 | 44 | 0 | 0.0 | 2.6 | 0.00 | 1.17 | 0.39 | 94 | 1010.1 |
| 20260506113042 | 44 | 286 | 0.0 | 3.5 | 0.00 | 1.17 | 0.39 | 94 | 1009.9 |
| 20260506111541 | 43 | 0 | 0.9 | 3.5 | 0.00 | 1.17 | 0.39 | 94 | 1010.1 |
| 20260506110041 | 44 | 24 | 0.9 | 3.5 | 0.00 | 1.17 | 0.39 | 95 | 1009.9 |
| 20260506104544 | 44 | 329 | 0.0 | 4.3 | 0.00 | 1.20 | 0.39 | 95 | 1009.5 |
| 20260506103047 | 44 | 325 | 1.7 | 6.1 | 0.00 | 1.20 | 0.39 | 95 | 1008.7 |
| 20260506101553 | 44 | 336 | 0.0 | 7.0 | 0.00 | 1.20 | 0.39 | 95 | 1009.0 |
| 20260506100041 | 44 | 275 | 0.9 | 4.3 | 0.00 | 1.20 | 0.39 | 96 | 1008.9 |
| 20260506094547 | 44 | 303 | 0.0 | 2.6 | 0.00 | 1.25 | 0.39 | 96 | 1008.4 |